ATLAS 5 CENTAUR DEB, 43983

Orbit data source: Space-Track

ATLAS 5 CENTAUR DEB, 43983 is space debris in HEO originally from a launch on Wed, 17 Sep 2014 UTC launched from the Air Force Eastern Test Range (AFETR). Debris objects in space refer to the collection of defunct objects orbiting the Earth. Examples of debris include non-operational satellites, rocket bodies, and fragments generated from explosions, collisions, or faulty payload assembly.

Loading next visibility...
Identifier
43983, 2014-055AN
Orbit
HEO
Last TLE update
2 days ago
Origin
Manufacturer
Unknown
Mission
Spacecraft
Bus & Motor
Unknown
Mass
Unknown
Launch date (UTC)
2014-09-17 (11 years ago)
Launch vehicle
Unknown
Launch site
Air Force Eastern Test Range (AFETR)
Object type
Payload
Rocket body
Debris
Shape & HBR
Unknown
Radar Cross Section
Small (<0.1 m²)

Expand to show TLE details & history

TLE from 2 days ago
0 ATLAS 5 CENTAUR DEB
1 43983U 14055AN  25117.57192300  .00000015  00000-0  00000-0 0  9991
2 43983  20.0690 158.7785 4971415 137.3401 274.3955  1.90079358 46093
Epoch: 2025-04-27T13:43Z
Definitive object data (Epoch: 2025-04-27T13:43:34.147Z)
Latitude
-0.00003°
Longitude
97.174°
Altitude
26,257.404 km
Speed
3.154 km/s
True Right ascension
10h 35m 27s
True Declination
0° 00' 00"
Sunlit
Object was in daylight at TLE epoch
Visualization TLE readout
Latitude
-16.18958°
Longitude
44.27122°
Altitude
33,943.944 km
Speed
2.301 km/s
Apparent Right ascension
06h 55m 43s
Apparent Declination
-24° 13' 54"
Sunlit
Object is in daylight
Visualization observer readout
Local Sidereal Time
08:00:48
Azimuth
196.252° SSW
Elevation
24.082°
Doppler factor
1
Orbital elements
Apogee altitude
34,838.587 km
Perigee altitude
7,465.698 km
Semi-major axis
27,530.279 km
Eccentricity
0.4971415
Inclination
20.069°
RAAN
158.7785°
Arg. of periapsis
137.3401°
True anomaly
222.6933°
Mean anomaly
274.3955°
Eccentric anomaly
247.98777°
Mean motion
0.47515 °/min
BSTAR
Unknown
Orbital period
757.66 mins
Loading maneuver chart data...
Loading SW <> Apogee altitude chart data...
Loading historical data...
Loading historical data...
Loading historical data...
Loading historical data...
Loading historical data...
Loading historical data...
Loading historical data...

ATLAS 5 CENTAUR DEB Visibility forecast

Observer location: undefined°, undefined°

Span
Click to sort rows by Start time (UTC) header in descending order
Start Az.
Max El. time (UTC)
Max El. Az.
Max El.
End time (UTC)
End Az.
434 mins2025-04-30 00:28:26.223Z196.247° SSW2025-04-30 06:55:26.223Z172.339° S39.914°2025-04-30 07:42:26.223Z100.015° ESE
81 mins2025-04-30 23:07:26.223Z214.774° SW2025-05-01 00:28:26.223Z212.655° SW14.453°2025-05-01 00:28:26.223Z212.655° SW
|